QPF
0.01 0.00 0.00 0.00 0.00 0.00 0.00 0.00 0.00 0.00 0.00 0.00 0.00 0.00 0.00 0.00 0.00 0.00 0.00 0.00 0.00 0.00 0.01 0.01 0.01 0.01 0.02 0.02 0.01 0.01 0.02 0.02 0.02 0.02 0.01 0.01 0.02 0.03 0.03 0.03 0.03 0.05 0.06 0.06
0.00 0.00 0.00 0.00 0.00 0.00 0.00 0.00 0.00 0.00 0.00 0.00 0.00 0.00 0.00 0.00 0.00 0.00 0.00 0.00 0.00 0.00 0.01 0.01 0.01 0.01 0.01 0.01 0.02 0.02 0.03 0.02 0.01 0.01 0.01 0.01 0.02 0.02 0.02 0.02 0.02 0.03 0.03 0.06
0.00 0.00 0.00 0.00 0.00 0.00 0.00 0.00 0.00 0.00 0.01 0.01 0.01 0.01 0.01 0.01 0.01 0.00 0.00 0.00 0.00 0.00 0.00 0.01 0.01 0.01 0.01 0.02 0.02 0.03 0.02 0.01 0.01 0.01 0.01 0.01 0.01 0.01 0.02 0.03 0.03 0.04 0.04 0.05
0.00 0.00 0.00 0.00 0.00 0.00 0.00 0.00 0.00 0.00 0.00 0.00 0.01 0.01 0.02 0.02 0.01 0.01 0.01 0.00 0.00 0.00 0.00 0.01 0.01 0.02 0.02 0.02 0.02 0.02 0.01 0.01 0.02 0.02 0.02 0.01 0.01 0.02 0.04 0.05 0.05 0.05 0.04 0.05
0.00 0.01 0.00 0.00 0.00 0.00 0.00 0.00 0.00 0.00 0.00 0.00 0.01 0.01 0.01 0.01 0.02 0.01 0.01 0.01 0.01 0.00 0.00 0.01 0.01 0.01 0.02 0.01 0.01 0.01 0.01 0.02 0.02 0.02 0.02 0.02 0.02 0.04 0.05 0.04 0.03 0.03 0.02 0.02
0.00 0.01 0.00 0.00 0.00 0.00 0.00 0.00 0.00 0.00 0.00 0.00 0.00 0.01 0.01 0.01 0.02 0.02 0.01 0.01 0.01 0.00 0.00 0.01 0.01 0.01 0.01 0.01 0.01 0.01 0.01 0.01 0.01 0.02 0.03 0.03 0.04 0.04 0.04 0.04 0.03 0.02 0.01 0.01
0.01 0.01 0.00 0.00 0.00 0.00 0.01 0.01 0.00 0.00 0.00 0.01 0.01 0.01 0.00 0.01 0.01 0.02 0.01 0.01 0.02 0.01 0.01 0.01 0.01 0.01 0.01 0.02 0.01 0.01 0.02 0.03 0.03 0.04 0.04 0.04 0.05 0.05 0.04 0.03 0.03 0.02 0.01 0.02
0.01 0.01 0.00 0.00 0.00 0.01 0.00 0.01 0.01 0.00 0.01 0.01 0.01 0.01 0.01 0.01 0.01 0.01 0.01 0.01 0.02 0.02 0.02 0.01 0.01 0.01 0.02 0.02 0.03 0.03 0.03 0.04 0.04 0.04 0.05 0.06 0.07 0.07 0.06 0.04 0.03 0.02 0.01 0.02
0.01 0.01 0.00 0.00 0.00 0.01 0.01 0.01 0.01 0.01 0.01 0.01 0.01 0.01 0.01 0.01 0.01 0.01 0.01 0.02 0.01 0.01 0.02 0.02 0.02 0.02 0.03 0.03 0.04 0.04 0.04 0.05 0.05 0.07 0.08 0.09 0.10 0.09 0.08 0.07 0.05 0.04 0.03 0.02
0.00 0.00 0.01 0.00 0.01 0.01 0.01 0.01 0.01 0.01 0.01 0.01 0.01 0.01 0.01 0.01 0.01 0.01 0.01 0.01 0.01 0.01 0.01 0.02 0.03 0.03 0.04 0.04 0.04 0.05 0.05 0.06 0.07 0.07 0.09 0.10 0.10 0.08 0.06 0.06 0.05 0.04 0.04 0.03
0.01 0.01 0.01 0.01 0.01 0.01 0.01 0.00 0.01 0.01 0.01 0.01 0.01 0.02 0.02 0.01 0.01 0.01 0.01 0.01 0.01 0.01 0.02 0.02 0.03 0.04 0.04 0.04 0.04 0.04 0.05 0.06 0.07 0.07 0.07 0.07 0.07 0.07 0.06 0.05 0.05 0.04 0.03 0.03
0.01 0.00 0.01 0.00 0.01 0.01 0.01 0.01 0.01 0.01 0.01 0.01 0.01 0.01 0.01 0.01 0.01 0.01 0.01 0.01 0.01 0.02 0.02 0.03 0.02 0.02 0.03 0.03 0.03 0.03 0.03 0.04 0.04 0.04 0.04 0.03 0.04 0.05 0.06 0.04 0.03 0.02 0.01 0.02
0.00 0.01 0.01 0.01 0.01 0.01 0.02 0.01 0.01 0.01 0.01 0.01 0.01 0.01 0.01 0.01 0.01 0.01 0.01 0.01 0.01 0.02 0.02 0.02 0.02 0.02 0.02 0.02 0.02 0.02 0.02 0.03 0.04 0.03 0.02 0.03 0.03 0.04 0.04 0.03 0.03 0.02 0.02 0.01
0.02 0.03 0.04 0.02 0.01 0.01 0.01 0.01 0.01 0.01 0.01 0.01 0.01 0.01 0.01 0.01 0.01 0.01 0.01 0.01 0.01 0.02 0.02 0.02 0.02 0.01 0.01 0.01 0.01 0.01 0.02 0.02 0.02 0.02 0.02 0.02 0.02 0.02 0.02 0.02 0.02 0.02 0.03 0.02
0.01 0.01 0.01 0.01 0.02 0.02 0.02 0.02 0.03 0.03 0.03 0.03 0.03 0.02 0.01 0.01 0.01 0.02 0.01 0.01 0.01 0.01 0.01 0.02 0.02 0.01 0.01 0.01 0.01 0.02 0.02 0.02 0.02 0.01 0.01 0.01 0.01 0.01 0.01 0.01 0.01 0.03 0.03 0.02
0.00 0.00 0.01 0.01 0.01 0.02 0.02 0.02 0.04 0.03 0.02 0.02 0.02 0.01 0.01 0.01 0.01 0.01 0.01 0.01 0.01 0.01 0.01 0.01 0.02 0.02 0.01 0.01 0.02 0.03 0.03 0.02 0.02 0.02 0.02 0.02 0.02 0.01 0.01 0.01 0.01 0.03 0.03 0.02
0.01 0.01 0.01 0.01 0.01 0.02 0.02 0.01 0.01 0.01 0.01 0.01 0.01 0.01 0.01 0.01 0.01 0.02 0.01 0.01 0.01 0.01 0.01 0.01 0.01 0.01 0.02 0.03 0.04 0.04 0.04 0.04 0.03 0.03 0.03 0.03 0.03 0.03 0.02 0.02 0.02 0.03 0.03 0.02
0.01 0.01 0.01 0.01 0.01 0.01 0.01 0.01 0.01 0.01 0.01 0.01 0.01 0.01 0.01 0.01 0.01 0.02 0.02 0.02 0.02 0.01 0.01 0.01 0.01 0.02 0.02 0.03 0.04 0.05 0.04 0.04 0.04 0.04 0.03 0.04 0.05 0.04 0.03 0.04 0.05 0.05 0.05 0.04
0.00 0.00 0.00 0.00 0.01 0.01 0.01 0.01 0.01 0.01 0.01 0.01 0.01 0.01 0.01 0.01 0.01 0.02 0.03 0.03 0.02 0.01 0.01 0.01 0.01 0.03 0.03 0.03 0.04 0.04 0.03 0.04 0.05 0.05 0.05 0.05 0.05 0.05 0.05 0.06 0.06 0.06 0.06 0.06
0.00 0.00 0.00 0.00 0.00 0.00 0.00 0.01 0.01 0.01 0.01 0.01 0.01 0.01 0.01 0.02 0.02 0.02 0.03 0.04 0.03 0.02 0.02 0.02 0.01 0.02 0.03 0.04 0.04 0.03 0.03 0.04 0.05 0.05 0.06 0.07 0.07 0.06 0.06 0.07 0.08 0.08 0.06 0.06
0.00 0.00 0.00 0.00 0.00 0.00 0.00 0.01 0.01 0.01 0.01 0.01 0.02 0.02 0.02 0.03 0.04 0.04 0.04 0.04 0.04 0.03 0.03 0.03 0.03 0.03 0.03 0.04 0.04 0.03 0.03 0.03 0.03 0.04 0.04 0.04 0.04 0.04 0.05 0.05 0.06 0.05 0.04 0.04
0.01 0.01 0.01 0.00 0.01 0.01 0.01 0.01 0.01 0.01 0.01 0.01 0.01 0.02 0.02 0.03 0.03 0.03 0.04 0.06 0.06 0.06 0.08 0.08 0.06 0.05 0.04 0.04 0.04 0.04 0.03 0.03 0.03 0.03 0.02 0.02 0.02 0.03 0.03 0.03 0.03 0.02 0.02 0.03
0.01 0.01 0.01 0.01 0.01 0.01 0.01 0.01 0.01 0.01 0.01 0.01 0.01 0.01 0.02 0.04 0.04 0.03 0.03 0.05 0.05 0.06 0.07 0.07 0.06 0.05 0.04 0.03 0.04 0.04 0.04 0.04 0.04 0.03 0.03 0.02 0.02 0.01 0.01 0.02 0.02 0.02 0.03 0.03
0.01 0.01 0.01 0.01 0.01 0.01 0.02 0.01 0.01 0.01 0.01 0.02 0.01 0.01 0.03 0.05 0.03 0.02 0.04 0.04 0.04 0.05 0.05 0.04 0.04 0.04 0.04 0.03 0.04 0.04 0.05 0.05 0.04 0.03 0.02 0.02 0.02 0.02 0.02 0.01 0.02 0.02 0.02 0.02
0.01 0.02 0.02 0.03 0.03 0.02 0.02 0.02 0.01 0.01 0.01 0.01 0.02 0.02 0.04 0.06 0.04 0.03 0.02 0.02 0.02 0.03 0.04 0.04 0.05 0.06 0.05 0.04 0.04 0.04 0.03 0.03 0.03 0.02 0.02 0.01 0.02 0.02 0.02 0.02 0.02 0.02 0.02 0.02
0.01 0.02 0.03 0.03 0.03 0.02 0.02 0.02 0.03 0.02 0.02 0.02 0.03 0.03 0.05 0.06 0.04 0.02 0.01 0.01 0.01 0.02 0.02 0.03 0.04 0.05 0.05 0.04 0.04 0.03 0.03 0.03 0.03 0.03 0.02 0.02 0.02 0.02 0.02 0.02 0.02 0.02 0.02 0.02
0.01 0.01 0.02 0.02 0.02 0.02 0.02 0.02 0.02 0.02 0.01 0.01 0.02 0.02 0.04 0.04 0.03 0.02 0.01 0.01 0.02 0.01 0.01 0.02 0.02 0.02 0.02 0.02 0.02 0.02 0.02 0.02 0.02 0.02 0.02 0.02 0.02 0.02 0.03 0.03 0.02 0.02 0.01 0.01
MSLP
1010.38 1010.29 1010.26 1010.28 1010.32 1010.33 1010.27 1010.08 1009.75 1009.27 1008.65 1007.94 1007.18 1006.43 1005.74 1005.14 1004.65 1004.28 1004.02 1003.86 1003.78 1003.79 1003.89 1004.08 1004.38 1004.80 1005.33 1005.97 1006.67 1007.41 1008.13 1008.79 1009.36 1009.83 1010.19 1010.46 1010.68 1010.88 1011.07 1011.29 1011.52 1011.75 1011.96 1012.10
1010.92 1010.85 1010.79 1010.76 1010.71 1010.63 1010.48 1010.24 1009.89 1009.43 1008.86 1008.22 1007.52 1006.81 1006.12 1005.46 1004.85 1004.30 1003.83 1003.43 1003.12 1002.92 1002.84 1002.92 1003.16 1003.57 1004.14 1004.84 1005.62 1006.44 1007.23 1007.95 1008.58 1009.09 1009.48 1009.80 1010.06 1010.31 1010.56 1010.85 1011.15 1011.46 1011.73 1011.94
1011.42 1011.36 1011.30 1011.21 1011.10 1010.94 1010.73 1010.44 1010.08 1009.64 1009.12 1008.54 1007.90 1007.22 1006.50 1005.77 1005.03 1004.30 1003.60 1002.96 1002.41 1002.00 1001.75 1001.71 1001.88 1002.28 1002.88 1003.64 1004.51 1005.41 1006.30 1007.10 1007.80 1008.37 1008.83 1009.20 1009.52 1009.82 1010.14 1010.49 1010.86 1011.23 1011.56 1011.82
1011.82 1011.78 1011.70 1011.58 1011.42 1011.20 1010.94 1010.63 1010.27 1009.86 1009.39 1008.86 1008.27 1007.61 1006.88 1006.08 1005.23 1004.33 1003.43 1002.57 1001.80 1001.19 1000.77 1000.61 1000.71 1001.08 1001.70 1002.51 1003.46 1004.45 1005.42 1006.32 1007.10 1007.75 1008.28 1008.71 1009.10 1009.46 1009.83 1010.23 1010.64 1011.05 1011.41 1011.69
1012.11 1012.07 1011.97 1011.82 1011.61 1011.36 1011.07 1010.74 1010.40 1010.02 1009.61 1009.14 1008.61 1007.99 1007.27 1006.44 1005.50 1004.49 1003.44 1002.41 1001.47 1000.68 1000.12 999.84 999.87 1000.20 1000.81 1001.65 1002.64 1003.69 1004.74 1005.71 1006.57 1007.29 1007.89 1008.38 1008.82 1009.23 1009.64 1010.07 1010.50 1010.91 1011.27 1011.55
1012.25 1012.19 1012.07 1011.88 1011.64 1011.36 1011.05 1010.73 1010.40 1010.07 1009.72 1009.34 1008.89 1008.34 1007.66 1006.85 1005.91 1004.85 1003.73 1002.59 1001.54 1000.64 999.97 999.60 999.55 999.82 1000.40 1001.22 1002.21 1003.29 1004.36 1005.38 1006.28 1007.05 1007.70 1008.24 1008.71 1009.15 1009.57 1010.00 1010.42 1010.82 1011.16 1011.41
1012.23 1012.14 1011.99 1011.77 1011.49 1011.19 1010.87 1010.56 1010.26 1009.99 1009.72 1009.43 1009.08 1008.64 1008.07 1007.34 1006.46 1005.44 1004.33 1003.19 1002.11 1001.16 1000.43 999.99 999.86 1000.07 1000.58 1001.34 1002.29 1003.32 1004.38 1005.38 1006.29 1007.07 1007.73 1008.29 1008.77 1009.21 1009.62 1010.03 1010.42 1010.77 1011.07 1011.29
1012.05 1011.93 1011.74 1011.49 1011.19 1010.87 1010.54 1010.25 1009.99 1009.78 1009.59 1009.41 1009.19 1008.88 1008.46 1007.88 1007.14 1006.24 1005.24 1004.18 1003.15 1002.22 1001.49 1001.01 1000.83 1000.95 1001.36 1002.03 1002.87 1003.82 1004.80 1005.74 1006.59 1007.34 1007.98 1008.51 1008.98 1009.39 1009.77 1010.13 1010.47 1010.78 1011.03 1011.20
1011.74 1011.58 1011.36 1011.09 1010.77 1010.44 1010.12 1009.84 1009.63 1009.47 1009.37 1009.29 1009.21 1009.06 1008.81 1008.42 1007.88 1007.18 1006.36 1005.46 1004.55 1003.72 1003.03 1002.55 1002.32 1002.37 1002.67 1003.20 1003.91 1004.71 1005.56 1006.38 1007.14 1007.81 1008.39 1008.87 1009.29 1009.65 1009.98 1010.29 1010.58 1010.83 1011.03 1011.16
1011.33 1011.14 1010.90 1010.61 1010.29 1009.96 1009.66 1009.40 1009.22 1009.11 1009.08 1009.11 1009.15 1009.16 1009.10 1008.92 1008.61 1008.15 1007.55 1006.87 1006.14 1005.44 1004.85 1004.40 1004.15 1004.12 1004.31 1004.69 1005.23 1005.86 1006.54 1007.21 1007.84 1008.40 1008.88 1009.29 1009.64 1009.94 1010.22 1010.47 1010.69 1010.89 1011.05 1011.15
1010.85 1010.65 1010.40 1010.12 1009.81 1009.50 1009.21 1008.98 1008.82 1008.76 1008.79 1008.90 1009.05 1009.20 1009.31 1009.34 1009.25 1009.03 1008.68 1008.23 1007.71 1007.18 1006.70 1006.31 1006.06 1005.97 1006.05 1006.29 1006.65 1007.10 1007.60 1008.10 1008.58 1009.01 1009.38 1009.70 1009.98 1010.21 1010.42 1010.61 1010.79 1010.94 1011.06 1011.13
1010.32 1010.12 1009.89 1009.63 1009.35 1009.07 1008.81 1008.61 1008.49 1008.46 1008.54 1008.70 1008.93 1009.20 1009.45 1009.64 1009.75 1009.75 1009.63 1009.39 1009.08 1008.72 1008.36 1008.05 1007.81 1007.68 1007.67 1007.78 1007.98 1008.26 1008.59 1008.92 1009.25 1009.55 1009.82 1010.04 1010.24 1010.41 1010.56 1010.70 1010.83 1010.93 1011.02 1011.06
1009.77 1009.58 1009.38 1009.15 1008.92 1008.68 1008.47 1008.31 1008.23 1008.23 1008.34 1008.55 1008.84 1009.17 1009.52 1009.84 1010.10 1010.26 1010.32 1010.28 1010.13 1009.93 1009.68 1009.44 1009.23 1009.08 1009.00 1009.00 1009.08 1009.21 1009.39 1009.58 1009.78 1009.96 1010.13 1010.27 1010.40 1010.51 1010.61 1010.70 1010.78 1010.85 1010.90 1010.92
1009.19 1009.02 1008.85 1008.68 1008.50 1008.32 1008.17 1008.07 1008.03 1008.08 1008.22 1008.46 1008.78 1009.16 1009.56 1009.95 1010.31 1010.58 1010.77 1010.85 1010.84 1010.75 1010.60 1010.42 1010.24 1010.08 1009.96 1009.88 1009.87 1009.89 1009.95 1010.03 1010.12 1010.22 1010.30 1010.38 1010.45 1010.50 1010.55 1010.60 1010.64 1010.67 1010.69 1010.69
1008.58 1008.43 1008.30 1008.18 1008.06 1007.96 1007.88 1007.85 1007.87 1007.98 1008.16 1008.43 1008.77 1009.17 1009.60 1010.03 1010.42 1010.75 1011.01 1011.17 1011.23 1011.21 1011.12 1010.99 1010.83 1010.67 1010.53 1010.41 1010.33 1010.29 1010.27 1010.28 1010.29 1010.32 1010.35 1010.37 1010.39 1010.40 1010.42 1010.42 1010.42 1010.42 1010.40 1010.37
1007.97 1007.83 1007.72 1007.65 1007.59 1007.56 1007.57 1007.62 1007.73 1007.90 1008.14 1008.44 1008.82 1009.23 1009.66 1010.09 1010.49 1010.83 1011.10 1011.29 1011.38 1011.39 1011.34 1011.22 1011.08 1010.93 1010.77 1010.64 1010.52 1010.44 1010.38 1010.34 1010.31 1010.30 1010.29 1010.27 1010.26 1010.24 1010.21 1010.18 1010.15 1010.11 1010.06 1010.00
1007.35 1007.22 1007.14 1007.10 1007.10 1007.15 1007.24 1007.38 1007.57 1007.82 1008.13 1008.49 1008.89 1009.32 1009.75 1010.17 1010.55 1010.87 1011.12 1011.29 1011.37 1011.38 1011.32 1011.22 1011.08 1010.93 1010.77 1010.63 1010.51 1010.41 1010.33 1010.27 1010.22 1010.19 1010.15 1010.11 1010.07 1010.02 1009.97 1009.91 1009.84 1009.77 1009.70 1009.61
1006.78 1006.65 1006.58 1006.57 1006.62 1006.73 1006.89 1007.12 1007.41 1007.74 1008.12 1008.54 1008.98 1009.43 1009.86 1010.26 1010.60 1010.89 1011.10 1011.23 1011.28 1011.26 1011.18 1011.07 1010.93 1010.77 1010.62 1010.48 1010.36 1010.27 1010.19 1010.12 1010.07 1010.02 1009.97 1009.92 1009.85 1009.79 1009.71 1009.63 1009.54 1009.45 1009.36 1009.26
1006.31 1006.18 1006.12 1006.13 1006.21 1006.37 1006.60 1006.90 1007.26 1007.67 1008.12 1008.60 1009.08 1009.54 1009.97 1010.34 1010.65 1010.89 1011.05 1011.13 1011.14 1011.08 1010.98 1010.84 1010.69 1010.54 1010.39 1010.26 1010.15 1010.06 1009.99 1009.93 1009.88 1009.83 1009.77 1009.71 1009.64 1009.55 1009.47 1009.37 1009.27 1009.17 1009.08 1008.98
1005.97 1005.86 1005.81 1005.83 1005.93 1006.13 1006.40 1006.75 1007.17 1007.64 1008.14 1008.65 1009.15 1009.62 1010.04 1010.40 1010.67 1010.86 1010.97 1011.00 1010.96 1010.87 1010.74 1010.59 1010.43 1010.28 1010.14 1010.02 1009.93 1009.85 1009.78 1009.73 1009.68 1009.63 1009.57 1009.51 1009.43 1009.34 1009.25 1009.15 1009.05 1008.96 1008.86 1008.77
1005.81 1005.72 1005.69 1005.73 1005.85 1006.06 1006.35 1006.73 1007.17 1007.66 1008.18 1008.71 1009.21 1009.67 1010.07 1010.40 1010.63 1010.78 1010.85 1010.84 1010.76 1010.64 1010.49 1010.33 1010.17 1010.02 1009.89 1009.79 1009.70 1009.64 1009.59 1009.54 1009.50 1009.45 1009.39 1009.32 1009.24 1009.16 1009.07 1008.98 1008.88 1008.80 1008.72 1008.65
1005.80 1005.76 1005.76 1005.83 1005.96 1006.18 1006.47 1006.85 1007.28 1007.76 1008.27 1008.77 1009.25 1009.68 1010.05 1010.33 1010.52 1010.63 1010.66 1010.62 1010.52 1010.38 1010.22 1010.06 1009.91 1009.77 1009.66 1009.57 1009.51 1009.46 1009.42 1009.38 1009.34 1009.29 1009.24 1009.17 1009.09 1009.01 1008.93 1008.84 1008.77 1008.70 1008.64 1008.60
1005.93 1005.95 1006.00 1006.10 1006.25 1006.46 1006.75 1007.09 1007.50 1007.94 1008.40 1008.85 1009.28 1009.65 1009.96 1010.19 1010.34 1010.41 1010.41 1010.35 1010.23 1010.09 1009.94 1009.80 1009.66 1009.55 1009.46 1009.39 1009.34 1009.31 1009.28 1009.25 1009.21 1009.17 1009.11 1009.05 1008.97 1008.90 1008.82 1008.75 1008.69 1008.64 1008.60 1008.58
1006.13 1006.22 1006.33 1006.46 1006.63 1006.85 1007.11 1007.43 1007.78 1008.16 1008.55 1008.94 1009.29 1009.59 1009.83 1010.01 1010.11 1010.14 1010.11 1010.04 1009.93 1009.80 1009.67 1009.54 1009.44 1009.35 1009.29 1009.25 1009.22 1009.19 1009.17 1009.15 1009.12 1009.08 1009.02 1008.96 1008.89 1008.82 1008.75 1008.69 1008.65 1008.61 1008.59 1008.58
1006.32 1006.48 1006.65 1006.83 1007.02 1007.24 1007.50 1007.77 1008.08 1008.39 1008.70 1009.01 1009.27 1009.50 1009.67 1009.78 1009.84 1009.84 1009.80 1009.72 1009.62 1009.51 1009.41 1009.32 1009.24 1009.19 1009.15 1009.13 1009.12 1009.12 1009.10 1009.09 1009.06 1009.01 1008.96 1008.90 1008.83 1008.77 1008.71 1008.66 1008.62 1008.59 1008.58 1008.58
1006.43 1006.66 1006.89 1007.11 1007.34 1007.57 1007.81 1008.06 1008.32 1008.57 1008.81 1009.04 1009.23 1009.38 1009.49 1009.55 1009.57 1009.54 1009.49 1009.42 1009.34 1009.26 1009.18 1009.13 1009.09 1009.06 1009.06 1009.06 1009.06 1009.07 1009.06 1009.04 1009.01 1008.97 1008.92 1008.86 1008.79 1008.73 1008.67 1008.63 1008.59 1008.57 1008.56 1008.57
1006.43 1006.71 1006.98 1007.25 1007.50 1007.76 1008.00 1008.23 1008.46 1008.66 1008.85 1009.01 1009.14 1009.23 1009.29 1009.31 1009.30 1009.27 1009.22 1009.16 1009.09 1009.04 1009.00 1008.98 1008.97 1008.97 1008.99 1009.01 1009.03 1009.04 1009.04 1009.02 1008.99 1008.95 1008.89 1008.83 1008.77 1008.71 1008.65 1008.61 1008.57 1008.55 1008.54 1008.55
Thickness
5783 5786 5787 5784 5784 5784 5782 5785 5782 5785 5786 5788 5791 5792 5792 5792 5791 5789 5787 5785 5784 5782 5780 5779 5778 5776 5774 5772 5770 5768 5764 5760 5757 5755 5753 5751 5749 5747 5745 5743 5741 5739 5737 5735
5770 5778 5778 5775 5779 5780 5779 5781 5781 5781 5779 5791 5792 5790 5786 5785 5782 5780 5779 5778 5777 5775 5774 5772 5770 5768 5766 5764 5763 5761 5757 5754 5751 5749 5747 5745 5743 5741 5739 5736 5734 5732 5730 5728
5760 5768 5764 5759 5772 5773 5774 5779 5778 5772 5777 5784 5780 5777 5777 5777 5776 5774 5773 5772 5771 5770 5768 5766 5764 5762 5759 5757 5755 5752 5749 5747 5744 5742 5740 5738 5737 5734 5731 5729 5727 5724 5722 5720
5756 5750 5734 5764 5780 5776 5771 5773 5777 5775 5776 5775 5774 5775 5775 5774 5770 5767 5765 5764 5764 5764 5762 5762 5760 5757 5754 5751 5748 5745 5742 5739 5737 5734 5732 5730 5727 5725 5723 5721 5718 5715 5713 5712
5747 5741 5746 5759 5766 5766 5759 5759 5770 5767 5767 5768 5770 5766 5766 5767 5765 5762 5760 5758 5757 5757 5757 5755 5752 5750 5747 5743 5741 5737 5735 5732 5730 5727 5724 5721 5718 5716 5715 5712 5710 5708 5706 5704
5738 5729 5730 5749 5762 5767 5757 5746 5760 5760 5757 5758 5757 5749 5752 5757 5756 5754 5752 5751 5751 5751 5750 5746 5743 5742 5738 5736 5732 5729 5728 5726 5724 5721 5717 5714 5711 5708 5707 5704 5702 5701 5699 5697
5730 5728 5740 5750 5756 5754 5733 5737 5751 5753 5752 5751 5747 5746 5749 5750 5747 5745 5743 5743 5743 5742 5739 5736 5736 5733 5729 5727 5724 5723 5722 5719 5716 5713 5710 5708 5704 5701 5698 5696 5693 5691 5691 5689
5724 5720 5727 5744 5745 5736 5734 5742 5744 5745 5746 5744 5742 5742 5741 5739 5737 5735 5734 5734 5733 5731 5729 5728 5727 5723 5719 5717 5717 5715 5712 5710 5707 5705 5703 5701 5696 5693 5690 5687 5685 5683 5681 5680
5726 5726 5732 5738 5735 5735 5736 5734 5736 5737 5738 5737 5733 5731 5731 5728 5727 5726 5725 5724 5724 5722 5720 5719 5717 5716 5711 5709 5708 5706 5704 5701 5699 5697 5695 5693 5689 5686 5683 5680 5679 5677 5676 5674
5716 5723 5726 5728 5729 5729 5729 5729 5731 5731 5731 5729 5725 5724 5722 5720 5718 5717 5717 5716 5715 5713 5710 5708 5708 5706 5704 5702 5700 5698 5695 5693 5691 5689 5687 5684 5681 5680 5677 5674 5671 5669 5667 5666
5707 5713 5717 5720 5720 5721 5722 5724 5724 5723 5723 5721 5719 5716 5714 5712 5711 5709 5708 5707 5706 5703 5700 5699 5698 5697 5696 5694 5692 5689 5687 5686 5684 5683 5680 5675 5673 5670 5668 5664 5662 5658 5658 5657
5703 5709 5708 5709 5713 5715 5713 5714 5715 5714 5713 5714 5712 5708 5707 5705 5704 5701 5700 5698 5696 5695 5693 5691 5690 5688 5686 5685 5682 5679 5679 5678 5676 5674 5672 5670 5667 5663 5657 5654 5650 5647 5643 5642
5703 5705 5706 5706 5707 5708 5707 5708 5709 5707 5706 5705 5704 5702 5699 5697 5695 5694 5691 5689 5687 5686 5684 5683 5681 5679 5677 5676 5673 5671 5670 5669 5669 5667 5666 5663 5661 5657 5653 5648 5643 5640 5637 5634
5695 5695 5692 5695 5698 5700 5700 5701 5702 5701 5699 5698 5696 5694 5692 5689 5687 5685 5683 5681 5680 5678 5676 5675 5673 5670 5669 5667 5665 5664 5663 5662 5660 5659 5658 5657 5654 5652 5649 5646 5643 5640 5633 5628
5686 5688 5688 5690 5691 5692 5693 5693 5692 5691 5690 5689 5687 5685 5683 5680 5678 5677 5676 5675 5673 5670 5668 5666 5664 5662 5661 5660 5658 5657 5656 5655 5653 5652 5651 5650 5648 5646 5644 5641 5638 5635 5632 5627
5679 5682 5682 5682 5682 5683 5684 5684 5683 5683 5682 5680 5679 5677 5676 5674 5672 5670 5669 5667 5664 5662 5660 5658 5656 5655 5654 5653 5651 5650 5649 5645 5643 5644 5644 5643 5641 5639 5637 5633 5630 5628 5625 5622
5669 5670 5672 5672 5674 5675 5676 5677 5677 5676 5674 5673 5672 5671 5669 5667 5664 5662 5661 5659 5657 5655 5653 5650 5649 5647 5646 5644 5643 5643 5642 5639 5634 5635 5635 5634 5632 5631 5628 5625 5622 5620 5617 5613
5666 5667 5668 5668 5667 5667 5667 5668 5669 5668 5666 5666 5664 5662 5660 5658 5656 5654 5653 5651 5649 5647 5646 5644 5642 5639 5638 5637 5634 5634 5633 5632 5630 5628 5627 5625 5623 5621 5620 5617 5615 5612 5610 5608
5660 5661 5662 5661 5662 5660 5660 5660 5661 5660 5659 5658 5656 5653 5651 5650 5648 5647 5645 5643 5641 5639 5638 5637 5631 5631 5631 5629 5625 5624 5624 5623 5622 5620 5618 5614 5614 5613 5612 5610 5608 5606 5603 5600
5654 5654 5654 5654 5654 5654 5653 5653 5652 5650 5650 5648 5646 5644 5642 5641 5640 5639 5637 5635 5635 5634 5631 5628 5625 5624 5622 5621 5616 5618 5618 5616 5614 5613 5610 5609 5607 5605 5604 5602 5599 5598 5595 5592
5646 5647 5646 5646 5645 5646 5645 5644 5642 5641 5640 5639 5637 5634 5633 5632 5631 5630 5629 5629 5628 5625 5623 5619 5618 5617 5615 5612 5608 5611 5611 5609 5607 5606 5604 5602 5600 5598 5596 5594 5592 5590 5588 5585
5639 5639 5638 5638 5637 5637 5637 5636 5634 5633 5631 5630 5628 5627 5625 5624 5624 5623 5622 5621 5621 5616 5615 5615 5614 5609 5606 5603 5605 5605 5603 5602 5601 5599 5598 5596 5593 5591 5589 5587 5585 5583 5581 5578
5631 5630 5630 5629 5629 5628 5628 5627 5626 5625 5623 5621 5620 5619 5618 5617 5617 5617 5616 5615 5613 5608 5607 5608 5604 5599 5595 5598 5600 5598 5596 5594 5594 5592 5590 5588 5587 5585 5583 5580 5578 5576 5574 5571
5622 5621 5622 5622 5621 5620 5618 5619 5618 5617 5615 5614 5614 5612 5611 5611 5610 5611 5610 5605 5602 5599 5601 5598 5593 5591 5588 5593 5592 5591 5588 5587 5585 5584 5582 5580 5579 5577 5575 5572 5570 5568 5566 5563
5615 5615 5615 5613 5612 5613 5612 5611 5610 5609 5608 5608 5607 5606 5606 5605 5604 5603 5601 5598 5594 5592 5593 5591 5586 5584 5585 5587 5585 5583 5581 5579 5578 5576 5573 5571 5570 5568 5566 5564 5562 5560 5558 5555
5609 5609 5608 5607 5607 5606 5606 5605 5604 5603 5602 5600 5599 5599 5598 5597 5595 5594 5592 5591 5589 5585 5585 5585 5582 5579 5580 5579 5577 5575 5574 5572 5570 5568 5565 5563 5561 5559 5557 5556 5553 5551 5549 5547
5604 5603 5602 5602 5602 5602 5601 5600 5598 5596 5595 5594 5592 5591 5590 5589 5588 5586 5585 5584 5583 5582 5580 5578 5577 5575 5574 5572 5570 5567 5566 5564 5561 5559 5557 5555 5553 5551 5549 5547 5545 5543 5540 5538